Aérodrome :
LOGIN :

S'inscrire | Disclaimer

   EN    FR    IT 

 










Légende :    VFR   VFR Marginal   IFR   IFR Intensif   IFR Très Intensif
Visi : 
Plafond : 
>= 8 km
>= 3000ft
5 à 8 km
1000 à 3000 ft
1500m à 5 km
500 à 1000 ft
800 à 1500m
200 à 500 ft
< 800m
< 200 ft
Symboles :   Orages  Brouillard  Fortes neiges  Fortes précipitations  Vent > 20 kt
SIGMETs :   Divers  Orages  Givrage  Turbulence  Onde Orograph.  Cendres Volcan.






- Altitude de l'aérodrome : 645 ft
- Code IATA : DLE


LFGJ - Dole Tavaux

DERNIER METAR :
  • 060100Z AUTO 18007KT 9999 SCT039 BKN048 OVC074 17/16 Q1009

METARs EXPIRÉS :
  • 060030Z AUTO 20006KT 9999 SCT039 BKN050 OVC074 17/16 Q1009
  • 060000Z AUTO 20008KT 9999 FEW031 BKN037 BKN045 17/16 Q1009
  • 052330Z AUTO 21004KT 9999 OVC040 17/16 Q1009
  • 052300Z AUTO 25012KT 6000 -RA NSC 17/16 Q1009
  • 052230Z AUTO 22006KT CAVOK 18/15 Q1009

Prévision TAF périmée.



MET'MAP, la Météo Aéronautique d'un coup d'oeil ! - Copyright ORBIFLY Décembre 2007 - Disclaimer

ORBIFLY MET'MAP TEAM :

Programmation & Développement : Alexandra Zaïnal
Sur une idée originale de : Baudouin d'Aumeries
Assistance à la programmation : Marc-Olivier Méhu
Soutien technique & logistique : Manuel Goepfert

Contact : metmap@orbifly.com




SOURCES & CREDITS :

   NOAA